When you browse on this site, cookies collect data to enhance your experience and personalize the content and advertising you see.
Visit our Privacy Policy to learn more. By continuing to use the site, you agree to this use of cookies and data.
  • Em Portugal
  • Lista de países
  • Para 7 dias
  • Temperatura da água
  • Mapas de satélite
  • Mapa do tempo
  • Widgets de tempo
  • user-avatar
    Iniciar Sessão

    Previsão horária em Serove

    Hoje, 17 Janeiro, Quinta-feira

    Tempo Temperatura Precipitação Vento Pressão Humidade
    00:00 +27°C° 0 mm 2 m/s 665 mmHg 60%
    01:00 +26°C° 0 mm 2 m/s 665 mmHg 62%
    02:00 +25°C° 0 mm 3 m/s 665 mmHg 65%
    03:00 +25°C° 0 mm 3 m/s 665 mmHg 68%
    04:00 +24°C° 0 mm 3 m/s 665 mmHg 71%
    05:00 +24°C° 0 mm 3 m/s 665 mmHg 74%
    06:00 +24°C° 0 mm 3 m/s 665 mmHg 72%
    07:00 +25°C° 0 mm 4 m/s 666 mmHg 70%
    08:00 +26°C° 0 mm 4 m/s 667 mmHg 68%
    09:00 +28°C° 0 mm 4 m/s 667 mmHg 60%
    10:00 +30°C° 0 mm 3 m/s 667 mmHg 53%
    11:00 +33°C° 0 mm 3 m/s 667 mmHg 45%
    12:00 +34°C° 0 mm 2 m/s 667 mmHg 41%
    13:00 +35°C° 0 mm 1 m/s 667 mmHg 36%
    14:00 +34°C° 0 mm 0 m/s 666 mmHg 32%
    15:00 +36°C° 0 mm 1 m/s 666 mmHg 32%
    16:00 +35°C° 0 mm 1 m/s 665 mmHg 32%
    17:00 +36°C° 0 mm 2 m/s 665 mmHg 32%
    18:00 +33°C° 0 mm 1 m/s 664 mmHg 35%
    19:00 +32°C° 0 mm 1 m/s 664 mmHg 38%
    20:00 +31°C° 0 mm 1 m/s 664 mmHg 41%
    21:00 +30°C° 0.1 mm 1 m/s 664 mmHg 42%
    22:00 +30°C° 0.1 mm 1 m/s 664 mmHg 44%
    23:00 +29°C° 0.1 mm 1 m/s 665 mmHg 45%

    Amanhã, 18 Janeiro, Sexta-feira

    Tempo Temperatura Precipitação Vento Pressão Humidade
    00:00 +28°C° 0.1 mm 1 m/s 664 mmHg 48%
    01:00 +27°C° 0.1 mm 1 m/s 664 mmHg 51%
    02:00 +27°C° 0.1 mm 1 m/s 664 mmHg 54%
    03:00 +26°C° 0.2 mm 1 m/s 663 mmHg 57%
    04:00 +25°C° 0.2 mm 1 m/s 663 mmHg 61%
    05:00 +25°C° 0.2 mm 1 m/s 663 mmHg 65%
    06:00 +26°C° 0 mm 1 m/s 664 mmHg 60%
    07:00 +28°C° 0 mm 2 m/s 664 mmHg 56%
    08:00 +29°C° 0 mm 2 m/s 665 mmHg 52%
    09:00 +31°C° 0 mm 2 m/s 665 mmHg 45%
    10:00 +35°C° 0 mm 2 m/s 666 mmHg 38%
    11:00 +36°C° 0 mm 1 m/s 666 mmHg 32%
    12:00 +36°C° 0 mm 1 m/s 666 mmHg 31%
    13:00 +36°C° 0 mm 1 m/s 665 mmHg 30%
    14:00 +36°C° 0 mm 1 m/s 665 mmHg 29%
    15:00 +36°C° 0.4 mm 2 m/s 664 mmHg 32%
    16:00 +35°C° 0.4 mm 3 m/s 663 mmHg 36%
    17:00 +34°C° 0.4 mm 4 m/s 663 mmHg 39%
    18:00 +32°C° 3 mm 4 m/s 663 mmHg 47%
    19:00 +29°C° 3 mm 3 m/s 662 mmHg 55%
    20:00 +27°C° 3 mm 3 m/s 662 mmHg 64%
    21:00 +27°C° 0.2 mm 3 m/s 663 mmHg 63%
    22:00 +27°C° 0.2 mm 3 m/s 663 mmHg 62%
    23:00 +27°C° 0.2 mm 3 m/s 664 mmHg 61%

    Depois de amanhã, 19 Janeiro, Sábado

    Tempo Temperatura Precipitação Vento Pressão Humidade
    00:00 +27°C° 0 mm 2 m/s 663 mmHg 59%
    01:00 +27°C° 0 mm 2 m/s 663 mmHg 57%
    02:00 +27°C° 0 mm 2 m/s 662 mmHg 55%
    03:00 +27°C° 0 mm 2 m/s 662 mmHg 56%
    04:00 +26°C° 0 mm 2 m/s 663 mmHg 57%
    05:00 +25°C° 0 mm 2 m/s 663 mmHg 58%
    06:00 +26°C° 0 mm 3 m/s 663 mmHg 58%
    07:00 +27°C° 0 mm 3 m/s 664 mmHg 57%
    08:00 +28°C° 0 mm 4 m/s 665 mmHg 57%
    09:00 +30°C° 0 mm 4 m/s 665 mmHg 50%
    10:00 +33°C° 0 mm 4 m/s 665 mmHg 44%
    11:00 +35°C° 0 mm 3 m/s 666 mmHg 37%
    12:00 +35°C° 0 mm 3 m/s 665 mmHg 35%
    13:00 +36°C° 0 mm 3 m/s 665 mmHg 34%
    14:00 +37°C° 0 mm 3 m/s 664 mmHg 32%
    15:00 +36°C° 0 mm 3 m/s 664 mmHg 33%
    16:00 +35°C° 0 mm 3 m/s 663 mmHg 34%
    17:00 +35°C° 0 mm 3 m/s 662 mmHg 35%
    18:00 +33°C° 0 mm 3 m/s 662 mmHg 37%
    19:00 +31°C° 0 mm 2 m/s 662 mmHg 39%
    20:00 +29°C° 0 mm 1 m/s 663 mmHg 41%
    21:00 +28°C° 0.1 mm 2 m/s 663 mmHg 41%
    22:00 +28°C° 0.1 mm 3 m/s 664 mmHg 42%
    23:00 +27°C° 0.1 mm 5 m/s 665 mmHg 42%

    20 Janeiro, Domingo

    Tempo Temperatura Precipitação Vento Pressão Humidade
    00:00 +26°C° 0.2 mm 5 m/s 665 mmHg 55%
    01:00 +23°C° 0.2 mm 6 m/s 665 mmHg 67%
    02:00 +22°C° 0.2 mm 6 m/s 665 mmHg 80%
    03:00 +22°C° 0 mm 7 m/s 666 mmHg 80%
    04:00 +21°C° 0 mm 7 m/s 666 mmHg 80%
    05:00 +21°C° 0 mm 8 m/s 667 mmHg 79%
    06:00 +21°C° 0 mm 8 m/s 667 mmHg 77%
    07:00 +20°C° 0 mm 7 m/s 668 mmHg 76%
    08:00 +20°C° 0 mm 7 m/s 668 mmHg 74%
    09:00 +20°C° 0 mm 7 m/s 669 mmHg 71%
    10:00 +20°C° 0 mm 7 m/s 669 mmHg 68%
    11:00 +21°C° 0 mm 6 m/s 669 mmHg 65%
    12:00 +23°C° 0 mm 7 m/s 669 mmHg 59%
    13:00 +24°C° 0 mm 7 m/s 669 mmHg 53%
    14:00 +27°C° 0 mm 7 m/s 669 mmHg 47%
    15:00 +27°C° 0 mm 7 m/s 669 mmHg 47%
    16:00 +27°C° 0 mm 6 m/s 669 mmHg 48%
    17:00 +27°C° 0 mm 6 m/s 668 mmHg 48%
    18:00 +26°C° 0 mm 5 m/s 669 mmHg 51%
    19:00 +23°C° 0 mm 5 m/s 669 mmHg 55%
    20:00 +22°C° 0 mm 4 m/s 669 mmHg 59%
    21:00 +21°C° 0 mm 4 m/s 670 mmHg 60%
    22:00 +21°C° 0 mm 3 m/s 670 mmHg 61%
    23:00 +20°C° 0 mm 3 m/s 670 mmHg 63%

    21 Janeiro, Segunda-feira

    Tempo Temperatura Precipitação Vento Pressão Humidade
    00:00 +20°C° 0 mm 3 m/s 670 mmHg 65%
    01:00 +19°C° 0 mm 4 m/s 669 mmHg 67%
    02:00 +18°C° 0 mm 4 m/s 669 mmHg 69%
    03:00 +18°C° 0 mm 4 m/s 669 mmHg 70%
    04:00 +17°C° 0 mm 4 m/s 669 mmHg 70%
    05:00 +16°C° 0 mm 5 m/s 669 mmHg 71%
    06:00 +16°C° 0 mm 5 m/s 670 mmHg 69%
    07:00 +17°C° 0 mm 5 m/s 670 mmHg 67%
    08:00 +17°C° 0 mm 6 m/s 671 mmHg 65%
    09:00 +20°C° 0 mm 5 m/s 671 mmHg 59%
    10:00 +22°C° 0 mm 5 m/s 671 mmHg 52%
    11:00 +25°C° 0 mm 5 m/s 671 mmHg 46%
    12:00 +27°C° 0 mm 5 m/s 671 mmHg 41%
    13:00 +28°C° 0 mm 5 m/s 670 mmHg 36%
    14:00 +30°C° 0 mm 4 m/s 670 mmHg 31%
    15:00 +30°C° 0 mm 4 m/s 669 mmHg 30%
    16:00 +30°C° 0 mm 4 m/s 669 mmHg 29%
    17:00 +30°C° 0 mm 4 m/s 668 mmHg 28%
    18:00 +28°C° 0 mm 3 m/s 668 mmHg 32%
    19:00 +26°C° 0 mm 3 m/s 668 mmHg 37%
    20:00 +24°C° 0 mm 2 m/s 668 mmHg 41%
    21:00 +24°C° 0 mm 2 m/s 668 mmHg 42%
    22:00 +23°C° 0 mm 2 m/s 668 mmHg 42%
    23:00 +21°C° 0 mm 2 m/s 668 mmHg 43%

    22 Janeiro, Terça-feira

    Tempo Temperatura Precipitação Vento Pressão Humidade
    00:00 +21°C° 0 mm 2 m/s 667 mmHg 42%
    01:00 +20°C° 0 mm 2 m/s 667 mmHg 40%
    02:00 +20°C° 0 mm 3 m/s 666 mmHg 39%
    03:00 +19°C° 0 mm 2 m/s 666 mmHg 40%
    04:00 +19°C° 0 mm 2 m/s 666 mmHg 41%
    05:00 +18°C° 0 mm 2 m/s 666 mmHg 41%
    06:00 +20°C° 0 mm 2 m/s 667 mmHg 39%
    07:00 +23°C° 0 mm 2 m/s 668 mmHg 36%
    08:00 +24°C° 0 mm 3 m/s 668 mmHg 34%
    09:00 +27°C° 0 mm 2 m/s 669 mmHg 31%
    10:00 +30°C° 0 mm 1 m/s 669 mmHg 28%
    11:00 +31°C° 0 mm 0 m/s 670 mmHg 25%
    12:00 +34°C° 0 mm 1 m/s 669 mmHg 24%
    13:00 +35°C° 0 mm 2 m/s 668 mmHg 22%
    14:00 +36°C° 0 mm 3 m/s 668 mmHg 20%
    15:00 +36°C° 0 mm 3 m/s 667 mmHg 20%
    16:00 +36°C° 0 mm 4 m/s 667 mmHg 20%
    17:00 +36°C° 0 mm 4 m/s 666 mmHg 20%
    18:00 +34°C° 0 mm 4 m/s 666 mmHg 23%
    19:00 +31°C° 0 mm 3 m/s 666 mmHg 27%
    20:00 +29°C° 0 mm 3 m/s 665 mmHg 31%
    21:00 +28°C° 0 mm 3 m/s 665 mmHg 33%
    22:00 +27°C° 0 mm 3 m/s 665 mmHg 35%
    23:00 +27°C° 0 mm 2 m/s 665 mmHg 37%
    Mostrar mais